[[{"header":{"parameterUnit":"m.s-1","parameterCategory":1,"la1":30.2991,"la2":30.254,"lo1":-89.0895,"lo2":-89.0444,"dy":0.0017,"dx":0.0017,"nx":28,"ny":28,"refTime":"2024-11-30T09:00:00:Z","depth":0,"parameterNumber":2,"parameterNumberName":"U-component_of_WINDS"},"data":[0,0,0,0,0,0,0,0,0,0,0,0,0,0,0,0,0,0,0,0,0,0,0,0,0,0,0,0,0,0,0,0,0,0,0,0,0,0,0,0,0,0,0,0,0,0,0,0,0,0,0,0,0,0,0,0,0,0,0.1801,0.1801,0,0.1824,0.1824,0.1824,0.1834,0.1834,0.1834,0.1834,0.1858,0.1858,0.1859,0,0,0,0,0,0,0,0,0,0,0,0,0,0.1765,0.1766,0.1801,0.1801,0.1801,0.1824,0.1824,0.1825,0.1834,0.1834,0.1834,0.1834,0.1858,0.1858,0.1859,0,0,0,0,0,0,0,0,0,0,0,0,0,0.1784,0.1766,0.18,0.1809,0.181,0.1824,0.1824,0.1825,0.1834,0.1834,0.1834,0.1834,0.1857,0.1858,0.1859,0.1867,0,0,0.1862,0.1863,0,0,0,0,0,0,0,0,0.1782,0.1785,0.1807,0.1808,0.1809,0.1826,0.182,0.1839,0.1834,0.1825,0.1834,0.1834,0.1847,0.1849,0.1854,0.1868,0.1869,0.1862,0.1863,0.1863,0.1864,0,0,0,0,0,0,0,0.1781,0.1784,0.181,0.1808,0.1809,0.1812,0.1814,0.1824,0.1836,0.1826,0.1827,0.1829,0.1848,0.1853,0.1854,0.1869,0.1862,0.1863,0.1864,0.1864,0.1892,0.1892,0,0,0,0,0,0,0.1779,0.1783,0.1809,0.181,0.1796,0.1812,0.1815,0.1821,0.1836,0.1838,0.1829,0.183,0.1851,0.1853,0.1855,0.1866,0.1863,0.1864,0.1865,0.1892,0.1892,0.1892,0,0,0,0,0,0,0.1778,0.1781,0.1808,0.1797,0.1801,0.1813,0.1819,0.1821,0.1826,0.1839,0.1841,0.1832,0.1851,0.1854,0.1864,0.1867,0.1865,0.1866,0.1892,0.1892,0.1892,0.1886,0,0,0,0,0,0,0.1777,0.178,0.1783,0.1797,0.1801,0.1816,0.1819,0.1822,0.1828,0.1829,0.1842,0.1844,0.1851,0.1863,0.1865,0.1868,0.1866,0.1892,0.1892,0.1892,0.1886,0.1886,0.1886,0,0,0,0,0,0.1775,0.178,0.1783,0.1786,0.1805,0.1816,0.1819,0.1827,0.1828,0.1831,0.1839,0.1843,0.1866,0.1864,0.1866,0.187,0.1891,0.1892,0.1892,0.1886,0.1886,0.1886,0,0,0,0,0,0,0.1765,0.1782,0.1786,0.1795,0.1804,0.1818,0.1822,0.1827,0.1836,0.1836,0.1846,0.1849,0.1859,0.1865,0.1862,0.1878,0.1879,0.188,0.1874,0.1874,0.1874,0.1872,0.1867,0,0,0,0,0,0.1765,0.1773,0.1787,0.1793,0.1798,0.1809,0.1815,0.1821,0.1831,0.1835,0.1844,0.1853,0.1863,0.1869,0.1878,0.1888,0.1891,0.1891,0.1891,0.1891,0.1892,0.1899,0.1899,0.1893,0.1893,0.1893,0,0,0.1762,0.1772,0.1777,0.1792,0.18,0.1808,0.1812,0.1821,0.1828,0.1836,0.1846,0.1854,0.1865,0.1876,0.1881,0.1881,0.1894,0.1892,0.1891,0.1892,0.1899,0.1899,0.19,0.1894,0.1894,0.1893,0,0,0.1763,0.1771,0.1778,0.1786,0.1799,0.1807,0.1808,0.1822,0.1827,0.1838,0.1845,0.1853,0.1869,0.1877,0.1883,0.1889,0.1893,0.1892,0.1891,0.1898,0.1898,0.1899,0.1901,0.1902,0.1892,0.1892,0.1892,0,0.1758,0.1771,0.1781,0.179,0.1797,0.1805,0.1813,0.182,0.1835,0.184,0.1841,0.1861,0.187,0.1883,0.1884,0.1889,0.1892,0.189,0.1898,0.1898,0.1899,0.1901,0.1902,0.1892,0.1892,0.1892,0.1892,0,0.1766,0.1775,0.1779,0.1794,0.1802,0.181,0.1821,0.1827,0.1833,0.1841,0.1852,0.1863,0.1875,0.1879,0.1884,0.1893,0.1893,0.1896,0.1896,0.1899,0.1902,0.1903,0.1892,0.1892,0.1892,0.1892,0,0,0.176,0.1781,0.1782,0.179,0.1805,0.1812,0.1821,0.1834,0.1839,0.1849,0.1858,0.1872,0.1875,0.1882,0.1888,0.1894,0.1899,0.1896,0.1896,0.1896,0.191,0.1909,0.1909,0.1902,0.1902,0.1902,0.191,0,0.1762,0.1779,0.1789,0.1801,0.181,0.182,0.1828,0.1838,0.1846,0.1855,0.1864,0.1874,0.1877,0.1881,0.1887,0.1897,0.1902,0.1896,0.191,0.191,0.1907,0.1911,0.1908,0.1915,0.1911,0.1911,0.1911,0,0.1767,0.1778,0.1792,0.1808,0.1812,0.1819,0.1832,0.184,0.1853,0.1858,0.1867,0.1874,0.1885,0.1885,0.19,0.1897,0.1903,0.1909,0.1909,0.1911,0.1911,0.1913,0.1917,0.1918,0.1913,0.1912,0.1912,0,0.1762,0.178,0.1791,0.1797,0.1815,0.182,0.1828,0.1841,0.1848,0.1859,0.1864,0.1877,0.1883,0.1893,0.1903,0.1903,0.1918,0.1919,0.1923,0.1923,0.1925,0.1925,0.1931,0.1929,0.1929,0.1929,0.1929,0,0.1764,0.1772,0.1789,0.1796,0.1806,0.1817,0.1827,0.1835,0.1847,0.1856,0.1864,0.1873,0.1886,0.1896,0.1904,0.1916,0.1919,0.1924,0.1926,0.1923,0.1922,0.1927,0.1927,0.193,0.193,0.193,0.193,0,0.176,0.1771,0.1784,0.1801,0.1805,0.1812,0.1826,0.1833,0.1842,0.1854,0.1857,0.1871,0.1884,0.1895,0.1911,0.1917,0.1929,0.1932,0.1925,0.1926,0.193,0.193,0.1939,0.1941,0.1938,0.1938,0.1938,0,0.176,0.1767,0.1785,0.1791,0.1799,0.181,0.1818,0.183,0.1838,0.1854,0.1859,0.1872,0.1884,0.1903,0.1915,0.1928,0.1931,0.1934,0.1933,0.193,0.1932,0.1931,0.1932,0.1933,0.1933,0.1933,0.1933,0,0.176,0.1766,0.1777,0.179,0.18,0.1811,0.1822,0.1827,0.1842,0.185,0.1863,0.1872,0.189,0.1903,0.1918,0.1926,0.1932,0.1934,0.1935,0.1932,0.1928,0.1931,0.1925,0.1933,0.1933,0.1933,0.1933,0.1933,0.1758,0.1765,0.1779,0.1792,0.1802,0.1812,0.182,0.1831,0.1842,0.1858,0.1864,0.1878,0.1892,0.1912,0.1921,0.1932,0.1933,0.1935,0.1936,0.1936,0.1936,0.1927,0.1934,0.1935,0.1935,0.1935,0.1935,0,0.1759,0.1769,0.178,0.1796,0.1806,0.1812,0.1825,0.1833,0.1845,0.1858,0.1869,0.1885,0.1898,0.1912,0.1926,0.1933,0.1936,0.1936,0.1936,0.1938,0.1934,0.1931,0.1933,0.1933,0.1933,0.1933,0.1933,0.1933,0.176,0.1773,0.178,0.1798,0.1808,0.1822,0.1829,0.1839,0.185,0.1867,0.1878,0.1887,0.1901,0.1916,0.1929,0.1933,0.1938,0.1937,0.1942,0.1938,0.1938,0.1938,0.1935,0.1938,0.1938,0.1945,0.1945,0.1945]},{"header":{"parameterUnit":"m.s-1","parameterCategory":1,"la1":30.2991,"la2":30.254,"lo1":-89.0895,"lo2":-89.0444,"dy":0.0017,"dx":0.0017,"nx":28,"ny":28,"refTime":"2024-11-30T09:00:00:Z","depth":0,"parameterNumber":3,"parameterNumberName":"V-component_of_WINDS"},"data":[0,0,0,0,0,0,0,0,0,0,0,0,0,0,0,0,0,0,0,0,0,0,0,0,0,0,0,0,0,0,0,0,0,0,0,0,0,0,0,0,0,0,0,0,0,0,0,0,0,0,0,0,0,0,0,0,0,0,-2.9622,-2.9623,0,-2.9702,-2.9703,-2.9704,-2.9709,-2.9708,-2.9707,-2.9706,-2.9785,-2.9788,-2.9791,0,0,0,0,0,0,0,0,0,0,0,0,0,-2.9469,-2.9471,-2.9622,-2.9623,-2.9624,-2.9702,-2.9703,-2.9704,-2.9709,-2.9708,-2.9707,-2.9706,-2.9784,-2.9788,-2.9791,0,0,0,0,0,0,0,0,0,0,0,0,0,-2.9541,-2.9472,-2.9622,-2.9636,-2.9638,-2.9702,-2.9703,-2.9705,-2.9709,-2.9708,-2.9706,-2.9705,-2.9783,-2.9787,-2.9792,-2.9847,0,0,-2.9805,-2.9807,0,0,0,0,0,0,0,0,-2.9536,-2.9546,-2.9632,-2.9635,-2.9637,-2.9694,-2.9678,-2.9752,-2.9709,-2.9682,-2.9706,-2.9704,-2.9756,-2.9762,-2.978,-2.985,-2.9854,-2.9806,-2.9808,-2.981,-2.9812,0,0,0,0,0,0,0,-2.9531,-2.9543,-2.9653,-2.9634,-2.9637,-2.9637,-2.9645,-2.9692,-2.9725,-2.9684,-2.9685,-2.9694,-2.9757,-2.9776,-2.9782,-2.9855,-2.9806,-2.981,-2.9812,-2.9814,-2.9972,-2.9974,0,0,0,0,0,0,-2.9524,-2.9539,-2.9651,-2.9656,-2.9582,-2.9641,-2.965,-2.9677,-2.9725,-2.9731,-2.9695,-2.9694,-2.9769,-2.9777,-2.9785,-2.9851,-2.981,-2.9814,-2.9817,-2.9971,-2.9973,-2.9975,0,0,0,0,0,0,-2.9521,-2.9534,-2.9648,-2.9597,-2.9612,-2.9645,-2.9675,-2.9679,-2.9699,-2.9734,-2.9739,-2.9709,-2.9768,-2.9779,-2.9831,-2.9854,-2.9816,-2.9821,-2.9969,-2.9972,-2.9974,-2.9984,0,0,0,0,0,0,-2.9517,-2.9533,-2.9555,-2.9598,-2.9615,-2.9693,-2.9676,-2.9682,-2.9707,-2.9706,-2.9748,-2.9754,-2.9768,-2.9825,-2.9836,-2.9859,-2.9824,-2.9967,-2.997,-2.9973,-2.9982,-2.9987,-2.9991,0,0,0,0,0,-2.9511,-2.9554,-2.9556,-2.957,-2.9643,-2.9695,-2.9704,-2.9721,-2.9709,-2.973,-2.9753,-2.9752,-2.985,-2.983,-2.9842,-2.9868,-2.9966,-2.9969,-2.9973,-2.998,-2.9986,-2.9991,0,0,0,0,0,0,-2.9512,-2.956,-2.9563,-2.9621,-2.9654,-2.9695,-2.9723,-2.9727,-2.9763,-2.976,-2.9779,-2.9788,-2.984,-2.9859,-2.9836,-2.9923,-2.9906,-2.9913,-2.9908,-2.9913,-2.9918,-2.9911,-2.9828,0,0,0,0,0,-2.9519,-2.9558,-2.9598,-2.9646,-2.9662,-2.969,-2.9713,-2.9724,-2.9758,-2.9771,-2.9797,-2.983,-2.9867,-2.9892,-2.9929,-2.9986,-2.9994,-3.0009,-3.0014,-3.0017,-3.0021,-3.0051,-3.0058,-2.9986,-2.9986,-2.9986,0,0,-2.9534,-2.9565,-2.9589,-2.9647,-2.9673,-2.9712,-2.9702,-2.9743,-2.9772,-2.9777,-2.9828,-2.9848,-2.9886,-2.994,-2.9965,-2.9958,-3.0043,-3.0021,-3.0024,-3.0026,-3.0055,-3.0062,-3.0068,-2.9988,-2.9988,-2.9987,0,0,-2.958,-2.9609,-2.9651,-2.9678,-2.9719,-2.9737,-2.9747,-2.9789,-2.9803,-2.9854,-2.9859,-2.9893,-2.9958,-2.9984,-3.0006,-3.0062,-3.0063,-3.0074,-3.0096,-3.0125,-3.013,-3.0135,-3.0154,-3.016,-3.0079,-3.0079,-3.0079,0,-2.9593,-2.9653,-2.9672,-2.9714,-2.9739,-2.9747,-2.9789,-2.9814,-2.9864,-2.9881,-2.9872,-2.9954,-2.998,-3.004,-3.0053,-3.0072,-3.0082,-3.0068,-3.0128,-3.0134,-3.0139,-3.0156,-3.0163,-3.008,-3.008,-3.008,-3.0079,0,-2.9666,-2.9707,-2.9736,-2.9785,-2.9814,-2.9856,-2.988,-2.9906,-2.9914,-2.9933,-2.9985,-3.0016,-3.0059,-3.0075,-3.0083,-3.0135,-3.0129,-3.0125,-3.0108,-3.0146,-3.0163,-3.017,-3.0081,-3.0081,-3.008,-3.008,0,0,-2.9713,-2.9773,-2.9783,-2.9805,-2.9851,-2.9883,-2.9925,-2.9968,-2.9989,-3.0024,-3.0058,-3.0113,-3.0109,-3.0134,-3.0145,-3.0171,-3.0211,-3.0162,-3.0164,-3.0169,-3.0269,-3.0271,-3.0279,-3.0213,-3.0214,-3.0215,-3.0265,0,-2.9763,-2.9838,-2.9857,-2.9921,-2.9958,-2.9967,-3.0003,-3.0034,-3.0053,-3.0087,-3.0107,-3.0145,-3.0138,-3.0153,-3.0179,-3.0201,-3.0231,-3.0198,-3.0243,-3.0244,-3.0231,-3.0288,-3.029,-3.0335,-3.0272,-3.0273,-3.0274,0,-2.9831,-2.9868,-2.9935,-2.9976,-2.9992,-3.0024,-3.0065,-3.0098,-3.0133,-3.0145,-3.0173,-3.0181,-3.0224,-3.0207,-3.0265,-3.0241,-3.0261,-3.0275,-3.0277,-3.028,-3.026,-3.029,-3.0351,-3.0357,-3.0285,-3.0284,-3.0284,0,-2.9856,-2.9923,-2.9972,-2.999,-3.0039,-3.0061,-3.0083,-3.0117,-3.0141,-3.0177,-3.0192,-3.0232,-3.0253,-3.0283,-3.0301,-3.0288,-3.0357,-3.0342,-3.0366,-3.0366,-3.0379,-3.0377,-3.0441,-3.0395,-3.0395,-3.0395,-3.0395,0,-2.9909,-2.9949,-2.9983,-3.0013,-3.0058,-3.0079,-3.0123,-3.0144,-3.0175,-3.0208,-3.0218,-3.0249,-3.0273,-3.0306,-3.0321,-3.0366,-3.0376,-3.0385,-3.0388,-3.0383,-3.0381,-3.0395,-3.0391,-3.0397,-3.0396,-3.0396,-3.0396,0,-2.9943,-2.9969,-3.0022,-3.0064,-3.0076,-3.0107,-3.0142,-3.0171,-3.0191,-3.0232,-3.0243,-3.0273,-3.0313,-3.0336,-3.0386,-3.0396,-3.0445,-3.0447,-3.0433,-3.0434,-3.0456,-3.0453,-3.0529,-3.0539,-3.0488,-3.0489,-3.0489,0,-2.9974,-3.0006,-3.0051,-3.0075,-3.0096,-3.0134,-3.0159,-3.0181,-3.0207,-3.0249,-3.0272,-3.0313,-3.0347,-3.041,-3.0436,-3.0474,-3.0476,-3.05,-3.0482,-3.0475,-3.0474,-3.0471,-3.0474,-3.0503,-3.0503,-3.0503,-3.0504,0,-3.0025,-3.0036,-3.0073,-3.0113,-3.0143,-3.0176,-3.0209,-3.0227,-3.0254,-3.0282,-3.0324,-3.035,-3.0402,-3.0441,-3.0482,-3.0502,-3.0507,-3.051,-3.0517,-3.0511,-3.05,-3.0504,-3.0439,-3.0507,-3.0507,-3.0507,-3.0506,-3.0506,-3.0058,-3.0085,-3.0122,-3.0162,-3.0189,-3.0219,-3.0248,-3.0271,-3.0307,-3.0351,-3.0362,-3.0405,-3.0439,-3.0494,-3.0516,-3.0549,-3.0544,-3.0555,-3.0557,-3.0559,-3.0559,-3.0497,-3.0556,-3.0556,-3.0556,-3.0556,-3.0556,0,-3.0107,-3.0132,-3.0168,-3.0214,-3.0245,-3.0249,-3.0285,-3.031,-3.0348,-3.038,-3.0414,-3.0461,-3.05,-3.0529,-3.0568,-3.0589,-3.0592,-3.0598,-3.0596,-3.06,-3.0562,-3.0551,-3.0595,-3.0595,-3.0595,-3.0595,-3.0595,-3.0595,-3.0137,-3.0184,-3.0199,-3.0259,-3.0283,-3.0326,-3.0346,-3.0373,-3.0399,-3.0451,-3.0484,-3.0503,-3.0534,-3.0575,-3.0611,-3.0618,-3.0631,-3.0637,-3.0644,-3.0607,-3.0603,-3.0599,-3.0588,-3.064,-3.064,-3.068,-3.068,-3.068]}]]